Simultaneous Nadir Overpasses (SNOs) Predictions

Prediction of SNOs between AURA and NPP Satellite Orbit:

Table of predicted SNOs for the next 14.0 days since TLE Epoch: 1/22/2017
Index Date (AURA) Time (AURA) Lat,Lon (AURA) SZA (AURA ) Date (NPP) Time (NPP) Lat,Lon (NPP) SZA (NPP ) Distance(km) Time Diff (sec)
1 01/24/2017 19:08:18 79.60, 150.53 111.48 01/24/2017 19:08:00 79.61, 150.57 111.48 1.12 18
2 01/24/2017 19:57:39 -79.83, -40.16 68.87 01/24/2017 19:58:38 -79.83, -40.09 68.93 1.55 59
3 01/27/2017 10:35:30 -79.36, 97.06 68.80 01/27/2017 10:34:17 -79.35, 96.94 68.73 2.51 73
4 01/27/2017 11:24:47 79.69, -92.95 110.71 01/27/2017 11:24:51 79.70, -92.85 110.68 2.17 4
5 01/30/2017 02:51:58 -79.48,-146.20 69.67 01/30/2017 02:51:07 -79.48,-146.25 69.62 1.06 51
6 01/30/2017 03:41:17 79.70, 23.01 110.00 01/30/2017 03:41:44 79.69, 22.88 110.01 2.63 27
7 02/01/2017 19:08:25 -79.60, -29.48 70.57 02/01/2017 19:07:56 -79.61, -29.43 70.56 0.99 29
8 02/01/2017 19:57:46 79.78, 139.48 109.16 02/01/2017 19:58:35 79.78, 139.45 109.13 0.52 49
9 02/04/2017 11:24:56 -79.61, 86.42 71.34 02/04/2017 11:24:50 -79.60, 86.30 71.31 2.72 6




NCC Satellite Simultaneous Nadir Overpasses (SNOs) Prediction Service
